TERRESTAR-1

Last updated on Sun Jun 21 2026 00:03:04 GMT+0000 (Coordinated Universal Time)

1 35496U 09035A 26171.41918265 -.00000063 00000+0 00000+0 0 9995 2 35496 5.1794 48.7956 0002690 33.8323 225.8999 1.00272882 62162
UTC large
Height (km)
Speed (km/s)
/
Latitude / Longitude
Inclination (degrees)
Orbital Period (minutes)
Azimuth
Elevation
Range (km)
Doppler Factor

Next 0 passes for location: London (51.5072 / 0.1276)

No passes found over London.
TERRESTAR-1